Вернуться в каталог

COSMOS 1317 DEB

АктивенHEO
NORAD 14736·DEBRIS·🇷🇺 Russia

Запущен Oct 31, 1981 с Plesetsk Cosmodrome

Loading…

Ближайшие Пролёты (ближайшие 24 часа)

TLE

СвежийSource: Space-Track

Эпоха: Sep 14, 2026, 04:20 UTC

1 14736U 81108G   26257.18104617  .00000084  00000-0  00000-0 0  9991
2 14736  71.5756 113.1462 4610524 319.1957 263.3725  2.00251187235092

Отслеживайте COSMOS 1317 DEB в реальном времени с AllMySat

Download on the App Store